TimeADT,TemperatureF,Dew PointF,Humidity,Sea Level PressureIn,VisibilityMPH,Wind Direction,Wind SpeedMPH,Gust SpeedMPH,PrecipitationIn,Events,Conditions,WindDirDegrees,DateUTC
12:00 AM,59,56,86,29.65,,SSW,8.1,,,,,210,2012-10-01 03:00:00
12:00 AM,58.8,55.9,90,29.65,-9999.0,SSW,8.1,-,N/A,,Unknown,210,2012-10-01 03:00:00
1:00 AM,57.2,54.9,92,29.66,-9999.0,SSW,5.8,-,N/A,,Unknown,200,2012-10-01 04:00:00
2:00 AM,56.7,54.0,91,29.67,-9999.0,South,4.6,-,N/A,,Unknown,190,2012-10-01 05:00:00
3:00 AM,56,54,90,29.69,,South,4.6,,,,,180,2012-10-01 06:00:00
3:00 AM,56.1,53.8,92,29.69,-9999.0,South,4.6,-,N/A,,Unknown,180,2012-10-01 06:00:00
4:00 AM,55.9,53.4,91,29.68,-9999.0,SSW,5.8,-,N/A,,Unknown,210,2012-10-01 07:00:00
5:00 AM,55.6,53.6,93,29.66,-9999.0,SSE,4.6,-,N/A,,Unknown,160,2012-10-01 08:00:00
6:00 AM,55,53,90,29.66,,ESE,3.5,,,,,120,2012-10-01 09:00:00
6:00 AM,54.7,52.9,94,29.66,-9999.0,SE,3.5,-,N/A,,Unknown,130,2012-10-01 09:00:00
7:00 AM,55.0,53.2,94,29.65,-9999.0,ESE,3.5,-,N/A,,Unknown,120,2012-10-01 10:00:00
8:00 AM,54.5,53.2,96,29.66,-9999.0,SE,2.3,-,N/A,,Unknown,130,2012-10-01 11:00:00
9:00 AM,57,54,86,29.66,,SSE,4.6,,,,,150,2012-10-01 12:00:00
9:00 AM,57.2,54.0,89,29.66,-9999.0,SSE,4.6,-,N/A,,Unknown,150,2012-10-01 12:00:00
10:00 AM,59.5,53.8,81,29.65,-9999.0,South,9.2,-,N/A,,Unknown,180,2012-10-01 13:00:00
11:00 AM,60.3,51.6,73,29.65,-9999.0,South,10.4,-,N/A,,Unknown,190,2012-10-01 14:00:00
12:00 PM,59,51,67,29.64,,SSW,10.4,,,,,200,2012-10-01 15:00:00
12:00 PM,59.4,51.1,74,29.64,-9999.0,SSW,10.4,18.4,N/A,,Unknown,200,2012-10-01 15:00:00
1:00 PM,57.0,53.1,87,29.63,-9999.0,South,8.1,-,N/A,,Unknown,190,2012-10-01 16:00:00
2:00 PM,55.4,53.6,94,29.62,-9999.0,South,6.9,-,0.10,,Unknown,190,2012-10-01 17:00:00
3:00 PM,56,54,89,29.62,,South,5.8,,,,,180,2012-10-01 18:00:00
3:00 PM,56.5,53.6,90,29.62,-9999.0,South,5.8,-,0.03,,Unknown,180,2012-10-01 18:00:00
4:00 PM,56.7,54.0,91,29.62,-9999.0,WSW,4.6,-,0.05,,Unknown,250,2012-10-01 19:00:00
5:00 PM,57.9,54.1,87,29.62,-9999.0,WSW,4.6,-,0.04,,Unknown,250,2012-10-01 20:00:00
6:00 PM,58,53,76,29.65,,WSW,6.9,,,,,250,2012-10-01 21:00:00
6:00 PM,58.5,52.5,81,29.65,-9999.0,WSW,6.9,-,N/A,,Unknown,250,2012-10-01 21:00:00
7:00 PM,56.3,52.9,88,29.68,-9999.0,WSW,4.6,-,N/A,,Unknown,240,2012-10-01 22:00:00
8:00 PM,52.0,49.8,92,29.70,-9999.0,Calm,Calm,-,N/A,,Unknown,0,2012-10-01 23:00:00
9:00 PM,50,49,93,29.73,,Calm,Calm,,,,,,2012-10-02 00:00:00
9:00 PM,49.6,48.6,96,29.73,-9999.0,Calm,Calm,-,N/A,,Unknown,0,2012-10-02 00:00:00
10:00 PM,47.3,46.4,97,29.76,-9999.0,NNE,1.2,-,N/A,,Unknown,30,2012-10-02 01:00:00
11:00 PM,49.3,48.7,98,29.77,-9999.0,WSW,3.5,-,N/A,,Unknown,250,2012-10-02 02:00:00